Martinsville, VA

7:22 PM EDT on September 22, 2017 (GMT -0400)
Blue Ridge

Weather History for KMTV - May, 2013

Change the Weather History Date:

Monday, May 13, 2013

  Actual Average (KINT) Record (KINT)
Temperature  
Mean Temperature 48 °F -  
Max Temperature 64 °F 74 °F 90 °F (2000)
Min Temperature 32 °F 54 °F 33 °F (1969)
Degree Days  
Heating Degree Days 17    
Moisture  
Dew Point 33 °F    
Average Humidity 62    
Maximum Humidity 98    
Minimum Humidity 25    
Precipitation  
Precipitation 0.00 in - - ()
Sea Level Pressure  
Sea Level Pressure 30.14 in    
Wind  
Wind Speed 2 mph (NW)    
Max Wind Speed 17 mph    
Max Gust Speed 25 mph    
Visibility 10 miles    
Events      
Averages and records for this station are not official NWS values.
T = Trace of Precipitation, MM = Missing Value Source: NWS Daily Summary

Daily Weather History Graph

Daily Weather History Graph

Search for Another Location

Airport or City:

Trip Planner

Search our weather history database for the weather conditions in past years. The results will help you decide how hot, cold, wet, or windy it might be!

Date:

Astronomy

May. 13, 2013 Rise Set
Actual Time 6:14 AM EDT 8:18 PM EDT
Civil Twilight 5:45 AM EDT 8:47 PM EDT
Nautical Twilight 5:10 AM EDT 9:22 PM EDT
Astronomical Twilight 4:33 AM EDT 10:00 PM EDT
Moon 8:59 AM EDT (5/13) 11:27 PM EDT (5/13)
Length of Visible Light 15h 02m
Length of Day
14h 04m
Waxing Crescent, 12% of the Moon is Illuminated
May 13
Waxing Crescent
May 18
First Quarter
May 25
Full
May 31
Last Quarter
Jun 8
New

Hourly Weather History & Observations

Time (EDT) Temp. Windchill Dew Point Humidity Pressure Visibility Wind Dir Wind Speed Gust Speed Precip Events Conditions
12:15 AM 45.0 °F - 35.1 °F 68% 30.09 in 10.0 mi Calm Calm - N/A   Clear
12:35 AM 41.9 °F - 36.3 °F 81% 30.09 in 10.0 mi Calm Calm - N/A   Clear
12:55 AM 40.5 °F - 37.2 °F 88% 30.10 in 10.0 mi Calm Calm - N/A   Clear
1:15 AM 39.9 °F 37.8 °F 37.0 °F 89% 30.10 in 10.0 mi NW 3.5 mph - N/A   Clear
1:35 AM 39.9 °F 37.8 °F 37.0 °F 89% 30.10 in 10.0 mi SE 3.5 mph - N/A   Clear
1:55 AM 38.3 °F - 36.1 °F 92% 30.10 in 10.0 mi Calm Calm - N/A   Clear
2:15 AM 37.9 °F - 36.7 °F 95% 30.10 in 10.0 mi Calm Calm - N/A   Clear
2:35 AM 37.8 °F - 36.3 °F 95% 30.10 in 10.0 mi Calm Calm - N/A   Clear
2:55 AM 36.9 °F - 35.2 °F 94% 30.10 in 10.0 mi Calm Calm - N/A   Clear
3:15 AM 36.3 °F 33.7 °F 35.4 °F 97% 30.10 in 10.0 mi NW 3.5 mph - N/A   Clear
3:35 AM 36.5 °F - 34.9 °F 94% 30.10 in 10.0 mi Calm Calm - N/A   Clear
3:55 AM 36.0 °F - 34.9 °F 96% 30.11 in 10.0 mi Calm Calm - N/A   Clear
4:15 AM 35.2 °F - 34.2 °F 96% 30.11 in 10.0 mi Calm Calm - N/A   Clear
4:35 AM 34.7 °F - 33.8 °F 97% 30.11 in 10.0 mi Calm Calm - N/A   Clear
4:55 AM 34.5 °F - 33.6 °F 97% 30.12 in 10.0 mi Calm Calm - N/A   Clear
5:15 AM 34.2 °F - 33.3 °F 97% 30.13 in 10.0 mi Calm Calm - N/A   Scattered Clouds
5:35 AM 34.3 °F - 33.4 °F 97% 30.13 in 10.0 mi Calm Calm - N/A   Scattered Clouds
5:55 AM 33.8 °F - 33.1 °F 97% 30.14 in 10.0 mi Calm Calm - N/A   Clear
6:15 AM 32.9 °F - 32.2 °F 97% 30.14 in 10.0 mi Calm Calm - N/A   Clear
6:35 AM 33.1 °F - 32.5 °F 98% 30.15 in 10.0 mi Calm Calm - N/A   Clear
6:55 AM 34.3 °F - 33.8 °F 98% 30.15 in 10.0 mi Calm Calm - N/A   Clear
7:15 AM 36.0 °F - 34.9 °F 96% 30.17 in 10.0 mi Calm Calm - N/A   Clear
7:35 AM 38.1 °F - 36.5 °F 94% 30.17 in 10.0 mi Calm Calm - N/A   Clear
7:55 AM 40.8 °F - 37.9 °F 89% 30.18 in 10.0 mi Calm Calm - N/A   Clear
8:15 AM 44.1 °F - 39.2 °F 83% 30.19 in 10.0 mi Calm Calm - N/A   Clear
8:35 AM 48.9 °F - 39.7 °F 71% 30.19 in 10.0 mi Calm Calm - N/A   Clear
8:55 AM 52.9 °F - 34.5 °F 50% 30.19 in 10.0 mi NW 8.1 mph - N/A   Clear
9:15 AM 54.0 °F - 32.5 °F 44% 30.20 in 10.0 mi NW 5.8 mph - N/A   Clear
9:35 AM 55.4 °F - 30.2 °F 38% 30.19 in 10.0 mi NW 4.6 mph - N/A   Clear
9:55 AM 55.9 °F - 31.5 °F 39% 30.19 in 10.0 mi NW 3.5 mph - N/A   Clear
10:15 AM 56.7 °F - 30.0 °F 36% 30.19 in 10.0 mi NW 4.6 mph 17.3 mph N/A   Clear
10:35 AM 57.2 °F - 29.1 °F 34% 30.19 in 10.0 mi NW 8.1 mph - N/A   Mostly Cloudy
10:55 AM 56.8 °F - 30.2 °F 36% 30.19 in 10.0 mi NNW 10.4 mph 16.1 mph N/A   Mostly Cloudy
11:15 AM 55.8 °F - 27.9 °F 34% 30.19 in 10.0 mi Calm Calm - N/A   Overcast
11:35 AM 58.8 °F - 29.8 °F 33% 30.19 in 10.0 mi NW 3.5 mph - N/A   Mostly Cloudy
11:55 AM 58.1 °F - 29.1 °F 33% 30.18 in 10.0 mi West 3.5 mph - N/A   Scattered Clouds
12:15 PM 59.5 °F - 28.9 °F 31% 30.17 in 10.0 mi Calm Calm - N/A   Mostly Cloudy
12:35 PM 60.8 °F - 30.2 °F 31% 30.17 in 10.0 mi Calm Calm - N/A   Mostly Cloudy
12:55 PM 62.2 °F - 30.2 °F 30% 30.16 in 10.0 mi WSW 4.6 mph - N/A   Scattered Clouds
1:15 PM 64.2 °F - 30.6 °F 28% 30.15 in 10.0 mi WSW 4.6 mph - N/A   Scattered Clouds
1:35 PM 60.8 °F - 28.6 °F 29% 30.14 in 10.0 mi Calm Calm - N/A   Mostly Cloudy
1:55 PM 63.1 °F - 30.7 °F 30% 30.13 in 10.0 mi NW 5.8 mph - N/A   Mostly Cloudy
2:15 PM 62.2 °F - 30.7 °F 31% 30.12 in 10.0 mi NW 4.6 mph - N/A   Mostly Cloudy
2:35 PM 61.2 °F - 27.0 °F 27% 30.11 in 10.0 mi Calm Calm - N/A   Overcast
2:55 PM 61.9 °F - 28.4 °F 28% 30.10 in 10.0 mi WNW 3.5 mph - N/A   Mostly Cloudy
3:15 PM 63.1 °F - 30.4 °F 29% 30.10 in 10.0 mi NW 6.9 mph - N/A   Mostly Cloudy
3:35 PM 62.6 °F - 28.4 °F 27% 30.09 in 10.0 mi WNW 4.6 mph - N/A   Overcast
4:35 PM 62.8 °F - 28.4 °F 27% 30.08 in 10.0 mi NW 10.4 mph 16.1 mph N/A   Overcast
4:55 PM 61.2 °F - 29.3 °F 30% 30.08 in 10.0 mi NNW 8.1 mph - N/A   Overcast
5:15 PM 61.2 °F - 28.8 °F 29% 30.08 in 10.0 mi NNW 10.4 mph - N/A   Overcast
5:35 PM 62.8 °F - 27.3 °F 26% 30.08 in 10.0 mi NW 12.7 mph 19.6 mph N/A   Scattered Clouds
5:55 PM 64.4 °F - 28.2 °F 26% 30.08 in 10.0 mi NNW 17.3 mph 25.3 mph N/A   Mostly Cloudy
6:15 PM 63.0 °F - 26.2 °F 25% 30.08 in 10.0 mi NNW 12.7 mph 18.4 mph N/A   Scattered Clouds
6:35 PM 62.6 °F - 27.3 °F 26% 30.08 in 10.0 mi NNW 9.2 mph 18.4 mph N/A   Clear
6:55 PM 61.7 °F - 26.6 °F 26% 30.08 in 10.0 mi NW 13.8 mph 18.4 mph N/A   Clear
7:35 PM 59.4 °F - 27.7 °F 30% 30.10 in 10.0 mi NNW 5.8 mph - N/A   Clear
8:15 PM 51.3 °F - 34.7 °F 53% 30.11 in 10.0 mi Calm Calm - N/A   Scattered Clouds
8:35 PM 49.6 °F - 36.1 °F 60% 30.13 in 10.0 mi Calm Calm - N/A   Scattered Clouds
8:55 PM 48.4 °F - 33.8 °F 57% 30.13 in 10.0 mi Calm Calm - N/A   Scattered Clouds
9:15 PM 46.8 °F - 35.6 °F 65% 30.15 in 10.0 mi Calm Calm - N/A   Mostly Cloudy
9:35 PM 47.1 °F - 35.2 °F 63% 30.16 in 10.0 mi Calm Calm - N/A   Overcast
9:55 PM 45.7 °F - 37.0 °F 72% 30.18 in 10.0 mi Calm Calm - N/A   Overcast
10:15 PM 44.4 °F - 37.4 °F 76% 30.19 in 10.0 mi Calm Calm - N/A   Mostly Cloudy
10:35 PM 43.2 °F - 37.8 °F 81% 30.20 in 10.0 mi Calm Calm - N/A   Overcast
10:55 PM 42.3 °F - 37.9 °F 85% 30.21 in 10.0 mi Calm Calm - N/A   Mostly Cloudy
11:15 PM 43.7 °F - 35.8 °F 74% 30.21 in 10.0 mi Calm Calm - N/A   Scattered Clouds
11:35 PM 41.4 °F - 37.0 °F 85% 30.22 in 10.0 mi Calm Calm - N/A   Scattered Clouds
11:55 PM 40.5 °F - 36.5 °F 86% 30.22 in 10.0 mi Calm Calm - N/A   Clear